Showing default

HULIANWANG DIGUI-34, 64287

Orbit data source: Space-Track

HULIANWANG DIGUI-34, 64287 is a payload satellite owned by Zhongguo Xingwang (CN) in LEO that was launched on Thu, 05 Jun 2025 UTC via a CHANG ZHENG 6A launch vehicle from the Taiyaun Space Center, China (TSC). Payload-class satellites include a variety of spacecraft equipped with specific instruments for various scientific and technological missions. These include communications satellites like Starlink; space stations such as the ISS; scientific satellites like the Hubble; Earth observation satellites from companies like Planet Labs, Umbra, and HawkEye 360; GPS; miniature CubeSats for education and research; and military/defense satellites.

Loading next visibility...
Identifier
64287, 2025-121E
Orbit
LEO
Country
Flag of CNCN / PRC
Related business
Manufacturer
SECM
Mission
Operational Civil Communications
Bus & Motor
XINGWANG S, Unknown motor
Mass
~800 kg wet, ~800 kg dry
Launch date (UTC)
2025-06-05 (10 months ago)
Launch vehicle
CHANG ZHENG 6A
Launch site
Taiyaun Space Center, China (TSC)
Object type
Payload
Rocket body
Debris
Shape & HBR
Box + 2 Pan, 5.0 m
Radar Cross Section
5.935 m², Large (>1 m²)

Expand to show TLE details & history
Last TLE update: 9 hours ago

TLE from 9 hours ago
0 HULIANWANG DIGUI-34
1 64287U 25121E   26104.22395750  .00000043  00000-0  66866-4 0  9997
2 64287  86.5015  35.0996 0001447  63.1052 297.0230 13.24410005 41692
Epoch: 2026-04-14T05:22Z
TLE epoch observation values (Epoch: 2026-04-14T05:22:29.928Z)
Latitude
-0.00003°
Longitude
112.07162°
Altitude
1,170.32 km
Speed
7.268 km/s
True Right ascension
02h 20m 23s
True Declination
0° 00' 00"
Sunlit
Object was in daylight at epoch
Visualization orbit readout
Latitude
Unknown
Longitude
Unknown
Altitude
Unknown
Speed
Unknown
Apparent Right ascension
Unknown
Apparent Declination
Unknown
Sunlit
N/A
Visualization observer readout
Local Sidereal Time
21:11:49
Azimuth
Unknown
Elevation
Unknown
Doppler factor
Unknown
Orbital elements
Apogee altitude
1,166.134 km
Perigee altitude
1,163.951 km
Semi-major axis
7,543.179 km
Eccentricity
0.00014
Inclination
86.5015°
RAAN
35.0996°
Arg. of periapsis
63.1052°
True anomaly
297.00823°
Mean anomaly
297.023°
Eccentric anomaly
297.01561°
Mean motion
3.31292 °/min
Orbital period
108.67 mins
BSTAR
0.000066866
Loading maneuver chart data...
Computing Atmospheric mass density...
Loading historical data...
Loading historical data...
Loading historical data...
Loading historical data...
Loading historical data...
Loading historical data...
Loading historical data...

Documentation

Showing up to 5 results
|